Flag for U.S.A. Weather past 2 weeks in St. Croix Falls, Wisconsin, U.S.A.

Now
55 °F

Clear.


Feels Like: 54 °F
Forecast: 49 / 69 °F
Wind: 7 mph from Northwest

Location: L O Simenstad Municipal Airport

Current Time: Jul 7, 2015 at 1:59:14 AM

Latest Report: Jul 7, 2015 at 1:15 AM


Visibility: 10 mi

Pressure: 30.08 "Hg

Humidity: 77%

Dew point: 48 °F

Location of St. Croix FallsLocation

Historic Weather in St. Croix Falls — Graph

°F

St. Croix Falls temperature yesterday

Maximum temperature yesterday: 76 °F (at 12:15 AM)
Minimum temperature yesterday: 59 °F (at 11:55 PM)
Average temperature yesterday: 67 °F

Past Weeks' High & Low Weather Summary

 TemperatureHumidityPressure
High85 °F (Jul 5, 3:55 PM)100% (Jun 22, 12:15 AM)30.15 "Hg (Jun 22, 12:15 AM)
Low51 °F (Jun 23, 5:55 AM)35% (Jun 23, 3:55 PM)29.44 "Hg (Jun 22, 9:55 AM)
Average68 °F76%29.97 "Hg
* Reported Jun 22 12:15 AM — Jul 7 12:55 AM, St. Croix Falls, Weather by CustomWeather, © 2015

Note: Actual official high and low records may vary slightly from our data, if they occured in-between our weather recording intervals... More about our weather records

Advertising

St. Croix Falls weather history for previous 24 hours

 ConditionsComfort  
Time TempWeatherWind HumidityBarometerVisibility
12:55 AM
Tue, Jul 7
56 °FClear.3 mph75%30.08 "Hg10 mi
12:35 AM57 °FPassing clouds.6 mph72%30.07 "Hg10 mi
12:15 AM58 °FPassing clouds.6 mph71%30.07 "Hg10 mi
11:55 PM
Mon, Jul 6
59 °FMostly cloudy.6 mph67%30.07 "Hg10 mi
11:15 PM60 °FMostly cloudy.7 mph64%30.06 "Hg10 mi
10:55 PM60 °FMostly cloudy.10 mph62%30.06 "Hg10 mi
10:15 PM61 °FOvercast.10 mph64%30.05 "Hg10 mi
9:55 PM61 °FOvercast.12 mph65%30.04 "Hg10 mi
9:35 PM62 °FBroken clouds.13 mph64%30.03 "Hg10 mi
9:15 PM62 °FScattered clouds.9 mph66%30.04 "Hg10 mi
8:55 PM63 °FScattered clouds.6 mph66%30.02 "Hg10 mi
8:35 PM65 °FPartly sunny.10 mph63%30.01 "Hg10 mi
8:15 PM66 °FScattered clouds.12 mph65%30.00 "Hg10 mi
7:55 PM68 °FBroken clouds.12 mph64%29.99 "Hg10 mi
7:35 PM68 °FBroken clouds.9 mph66%29.98 "Hg7 mi
7:15 PM68 °FScattered clouds.6 mph74%29.97 "Hg5 mi
6:55 PM69 °FScattered clouds.5 mph70%29.97 "Hg5 mi
6:35 PM69 °FBroken clouds.8 mph68%29.97 "Hg5 mi
6:15 PM69 °FBroken clouds.5 mph72%29.97 "Hg4 mi
5:55 PM69 °FScattered clouds.9 mph70%29.96 "Hg4 mi
5:35 PM68 °FBroken clouds.7 mph74%29.97 "Hg3 mi
5:15 PM68 °FPartly sunny.10 mph74%29.97 "Hg3 mi
4:55 PM69 °FScattered clouds.9 mph73%29.97 "Hg3 mi
4:15 PM68 °FBroken clouds.9 mph86%29.96 "Hg3 mi
3:55 PM66 °FFog.10 mph90%29.97 "Hg3 mi
3:35 PM65 °FFog.7 mph94%29.96 "Hg3 mi
3:15 PM64 °FFog.8 mph99%29.96 "Hg3 mi
2:55 PM63 °FFog.8 mph99%29.96 "Hg3 mi
2:35 PM62 °FFog.9 mph100%29.95 "Hg3 mi
2:15 PM62 °FLight rain. Cloudy.12 mph100%29.94 "Hg3 mi
1:55 PM61 °FLight rain. Cloudy.10 mph100%29.94 "Hg3 mi
1:35 PM61 °FLight rain. Cloudy.10 mph100%29.94 "Hg3 mi
1:15 PM62 °FLight rain. Mostly cloudy.13 mph100%29.92 "Hg3 mi
12:50 PM62 °FRain. More clouds than sun.15 mph100%29.92 "Hg3 mi
12:35 PM62 °FLight rain. Cloudy.15 mph100%29.92 "Hg3 mi
12:15 PM62 °FLight rain. Mostly cloudy.17 mph100%29.91 "Hg4 mi
11:55 AM64 °FRain. Low clouds.14 mph100%29.89 "Hg3 mi
11:35 AM65 °FHeavy rain. Low clouds.14 mph100%29.88 "Hg2 mi
11:15 AM67 °FLight rain. Low clouds.15 mph100%29.86 "Hg7 mi
10:50 AM70 °FHeavy rain. Mostly cloudy.8 mph100%29.85 "Hg2 mi
10:35 AM71 °FRain. Mostly cloudy.No wind100%29.84 "Hg2 mi
10:15 AM71 °FLow clouds.No wind100%29.84 "Hg10 mi
9:55 AM71 °FLight rain. Low clouds.No wind100%29.83 "Hg10 mi
9:35 AM70 °FLight rain. Low clouds.3 mph100%29.83 "Hg10 mi
9:15 AM70 °FLight rain. Mostly cloudy.3 mph100%29.82 "Hg10 mi
8:55 AM69 °FLight rain. Cloudy.3 mph100%29.81 "Hg10 mi
8:35 AM68 °FRain. Overcast.5 mph100%29.81 "Hg10 mi
8:15 AM68 °FLight rain. More clouds than sun.7 mph100%29.81 "Hg10 mi
7:15 AM68 °FRain. More clouds than sun.8 mph100%29.85 "Hg7 mi
6:55 AM67 °FHeavy rain. Cloudy.7 mph100%29.85 "Hg5 mi
6:35 AM67 °FRain. More clouds than sun.9 mph100%29.86 "Hg5 mi
6:15 AM67 °FRain. Overcast.14 mph100%29.85 "Hg7 mi
5:55 AM67 °FRain. Mostly cloudy.14 mph100%29.84 "Hg7 mi
5:15 AM68 °FHeavy rain. Mostly cloudy.7 mph100%29.86 "Hg5 mi
4:55 AM68 °FHeavy rain. Mostly cloudy.10 mph100%29.84 "Hg7 mi
4:15 AM68 °FRain. Overcast.8 mph100%29.85 "Hg10 mi
3:55 AM68 °FRain. Overcast.18 mph100%29.85 "Hg3 mi
3:35 AM68 °FHeavy rain. Overcast.No wind100%29.89 "Hg2 mi
3:15 AM69 °FHeavy rain. Overcast.7 mph100%29.87 "Hg4 mi
2:55 AM69 °FHeavy rain. Overcast.13 mph100%29.84 "Hg5 mi
2:15 AM71 °FHeavy rain. Overcast.9 mph100%29.87 "Hg4 mi
1:55 AM71 °FHeavy rain. Overcast.9 mph100%29.85 "Hg2 mi
1:35 AM72 °FLight rain. Mostly cloudy.3 mph100%29.84 "Hg7 mi
1:15 AM72 °FLight rain. Overcast.9 mph100%29.85 "Hg7 mi
Weather by CustomWeather, © 2015

See weather overviewHow to use our weather pages